Location: Basse Occidentale du Courleau
(48.3833°N, 4.8333°W)
Time: 09:55:00
(UTC+00:00)

EO 1 Del DPAF - Pass Details

Date: 05 July 2020
Orbit: 512 x 518 km, 98.0° (Epoch: 07 August)

Event Time Altitude Azimuth Distance (km) Brightness Sun altitude
Rises 22:38:12 0° 22° (NNE) 2,644 7.5 -15.1°
Reaches altitude 10° 22:40:29 10° 34° (NNE) 1,751 6.3 -15.3°
Maximum altitude 22:43:51 30° 97° (E) 939 4.2 -15.5°
Enters shadow 22:44:47 27° 125° (SE) 1,023 4.2 -15.5°
